Regional Weather Roundup
Issued by NWS

Home | Current Version | Previous Version | Graphics & Text | Print | Product List | Glossary On
Versions: 1 2 3 4 5 6 7 8 9 10 11 12 13 14 15 16 17 18 19 20 21 22 23 24 25 26 27 28 29 30 31 32 33 34 35 36 37 38 39 40 41 42 43 44 45 46 47 48 49 50
000
ASUS45 KBOU 012107
RWRCO

WEATHER ROUNDUP FOR COLORADO
NATIONAL WEATHER SERVICE DENVER/BOULDER CO
300 PM MDT TUE SEP 01 2015

NOTE: "FAIR" INDICATES FEW OR NO CLOUDS BELOW 12000 FEET WITH NO
SIGNIFICANT WEATHER AND/OR OBSTRUCTIONS TO VISIBILITY.

COZ001>005-013-030-031-012200-
...NORTHWEST COLORADO...

CITY           SKY/WX    TMP DP  RH WIND       PRES   REMARKS
CRAIG          MOSUNNY   79  45  29 S15       30.14F
HAYDEN         NOT AVBL
MEEKER         PTSUNNY   73  45  36 S8        30.18R
MOUNT WERNER   NOT AVBL
STEAMBOAT SPGS PTSUNNY   73  46  38 CALM      30.21F
WALDEN         PTSUNNY   70  37  30 W12G18    30.30R
$$

COZ006>008-011-012200-
...WEST CENTRAL VALLEYS...

CITY           SKY/WX    TMP DP  RH WIND       PRES   REMARKS
GRAND JUNCTION MOSUNNY   83  49  30 NW5       30.07F
MONTROSE       MOSUNNY   86  42  21 NW8       30.13F
EAGLE          MOSUNNY   75  45  33 W16       30.22
RIFLE          PTSUNNY   74  54  49 SE9       30.14F
DELTA          MOSUNNY   90  42  18 S7        30.08F
NUCLA          MOSUNNY   82  37  20 NW12      30.18F
$$

COZ017>023-064>068-012200-
...SOUTHWEST COLORADO...

CITY           SKY/WX    TMP DP  RH WIND       PRES   REMARKS
DURANGO        MOSUNNY   81  41  24 CALM      30.22F
CORTEZ         SUNNY     85  42  22 SW10G17   30.16F
PAGOSA SPRINGS MOSUNNY   78  32  19 SW13      30.29F
TELLURIDE      PTSUNNY   70  38  30 W3        30.40F
WOLF CREEK PAS PTSUNNY   54  36  50 S14G26    30.62F
$$

COZ009-010-012-014-032>034-037-058>063-012200-
...CENTRAL COLORADO...

CITY           SKY/WX    TMP DP  RH WIND       PRES   REMARKS
ASPEN          PTSUNNY   69  41  36 VRB5      30.31F
BUENA VISTA    CLOUDY    71  40  32 S7        30.30R
COPPER MTN     CLOUDY    59  30  33 W21G26    30.60F
BERTHOUD PASS  PTSUNNY   48  36  61 N7G20     30.65F
COTTONWOOD PAS LGT RAIN  61  41  48 N6        30.44S
GUNNISON       MOSUNNY   75  36  23 N9        30.29F
KREMMLING      CLOUDY    59  46  63 SE6       30.30F
LEADVILLE      CLOUDY    59  35  40 W10G21    30.45R
MONARCH PASS   MOSUNNY   59  28  31 SW17G24   30.69F
SALIDA         PTSUNNY   82  35  18 CALM      30.29F
SUNLIGHT       PTSUNNY   61  46  59 CALM      30.54F
WILKERSON PASS PTSUNNY   59  32  36 N3        30.57S
$$

COZ069>075-012200-
...SAN LUIS VALLEY/SANGRE DE CRISTO MOUNTAINS...

CITY           SKY/WX    TMP DP  RH WIND       PRES   REMARKS
ALAMOSA        MOSUNNY   76  38  25 CALM      30.27F
LA VETA PASS   PTSUNNY   68  37  32 S7        30.48S
SAGUACHE       MOSUNNY   77  41  27 SW10G17   30.28F
$$

COZ035-036-038>040-012200-
...NORTHERN COLORADO FRONT RANGE...

CITY           SKY/WX    TMP DP  RH WIND       PRES   REMARKS
DENVER INTL AP MOSUNNY   87  36  16 VRB3      30.06F
DMNS CITY PARK   N/A     88  36  16 S6G15     30.05S
AURORA         PTSUNNY   88  40  18 W6        30.09F
FRONT RANGE AP MOSUNNY   86  34  15 SE7       30.08F
ERIE MUNI ARPT MOSUNNY   90  33  13 CALM      30.02F
BOULDER MUN AP MOSUNNY   88  34  14 N7        30.03F
CENTENNIAL     PTSUNNY   86  38  18 NW8       30.10F
BROOMFIELD     NOT AVBL
FORT COLLINS   MOSUNNY   90  43  19 S7        30.00F
LONGMONT       MOSUNNY   89  38  16 E3        30.04S
$$

COZ041-046-047-076>085-087-088-012200-
...PIKES PEAK/PALMER DIVIDE AND SOUTHERN FOOTHILLS...

CITY           SKY/WX    TMP DP  RH WIND       PRES   REMARKS
COLO. SPRINGS  MOSUNNY   84  38  19 SE7       30.14F
A. F. ACADEMY  MOSUNNY   82  37  19 VRB2      30.15F
ELLICOTT       MOSUNNY  N/A N/A N/A NE9       30.13F
FALCON         MOSUNNY   82  34  18 MISG      30.21F
FORT CARSON    MOSUNNY   86  46  24 VRB6      30.11F
LIMON          SUNNY     86  40  19 E5        30.09F
MONUMENT HILL  MOSUNNY   77  34  20 CALM      30.21F
TRINIDAD       PTSUNNY   85  39  19 E3        30.12F
$$

COZ042>045-048>051-090-091-012200-
...NORTHEAST COLORADO...

CITY           SKY/WX    TMP DP  RH WIND       PRES   REMARKS
GREELEY ARPT   SUNNY     90  39  17 S6        30.02F
AKRON          SUNNY     91  34  13 NW13      30.02F
BURLINGTON     MOSUNNY   89  52  28 SE10      30.01F
WRAY           CLOUDY    95  39  14 W5        29.96F
STERLING       NOT AVBL
HOLYOKE        SUNNY     95  54  24 S8G16     29.96S
FORT MORGAN    SUNNY     91  32  12 S5        30.01F
$$

COZ086-089-092>099-012200-
...SOUTHEAST COLORADO...

CITY           SKY/WX    TMP DP  RH WIND       PRES   REMARKS
PUEBLO         MOSUNNY   93  42  17 S10       30.02F
LA JUNTA       SUNNY     95  45  17 SW13      30.00F
LAMAR          SUNNY     92  56  29 NE10      29.96F
SPRINGFIELD      N/A     86  52  30 SE5       30.03F
$$



USA.gov is the U.S. government's official web portal to all federal, state and local government web resources and services.